Estherville, IA

6:45 AM CDT on September 26, 2017 (GMT -0500)
Estherville Municipal

Weather History for KEST - December, 2011

Change the Weather History Date:

Friday, December 2, 2011

  Actual Average Record
Temperature  
Mean Temperature 19 °F 24 °F  
Max Temperature 36 °F 33 °F 62 °F (1998)
Min Temperature 2 °F 15 °F -11 °F (1976)
Degree Days  
Heating Degree Days 46 41  
Month to date heating degree days 92 82  
Since 1 July heating degree days 1575 1801  
Cooling Degree Days 0 0  
Month to date cooling degree days 0 0  
Year to date cooling degree days 767 593  
Moisture  
Dew Point 14 °F    
Average Humidity 62    
Maximum Humidity 88    
Minimum Humidity 36    
Precipitation  
Precipitation 0.00 in 0.05 in 0.25 in (1976)
Month to date precipitation T 0.10  
Year to date precipitation 19.02  
Sea Level Pressure  
Sea Level Pressure 30.24 in    
Wind  
Wind Speed 13 mph (SSW)    
Max Wind Speed 26 mph    
Max Gust Speed 32 mph    
Visibility 10 miles    
Events      
T = Trace of Precipitation, MM = Missing Value Source: NWS Daily Summary

Daily Weather History Graph

Daily Weather History Graph

Search for Another Location

Airport or City:

Trip Planner

Search our weather history database for the weather conditions in past years. The results will help you decide how hot, cold, wet, or windy it might be!

Date:

Astronomy

Dec. 02, 2011 Rise Set
Actual Time 7:32 AM CST 4:43 PM CST
Civil Twilight 7:00 AM CST 5:15 PM CST
Nautical Twilight 6:24 AM CST 5:51 PM CST
Astronomical Twilight 5:50 AM CST 6:26 PM CST
Moon 12:34 PM CST (12/2) No Moon Set
Length of Visible Light 10h 15m
Length of Day
9h 11m
First Quarter, 53% of the Moon is Illuminated
Dec 2
First Quarter
Dec 10
Full
Dec 17
Last Quarter
Dec 24
New
Jan 1
First Quarter

Hourly Weather History & Observations

Time (CST) Temp. Windchill Dew Point Humidity Pressure Visibility Wind Dir Wind Speed Gust Speed Precip Events Conditions
12:52 AM 5.0 °F -6.9 °F 1.9 °F 87% 30.49 in 10.0 mi WSW 6.9 mph - N/A   Clear
1:52 AM 3.9 °F -6.9 °F -0.0 °F 84% 30.49 in 10.0 mi WSW 5.8 mph - N/A   Clear
3:52 AM 5.0 °F -5.6 °F 1.0 °F 84% 30.46 in 10.0 mi WSW 5.8 mph - N/A   Clear
4:52 AM 3.9 °F -9.4 °F -0.0 °F 84% 30.44 in 10.0 mi SW 8.1 mph - N/A   Clear
6:52 AM 7.0 °F -5.7 °F 3.0 °F 84% 30.43 in 10.0 mi South 8.1 mph - N/A   Clear
7:52 AM 3.0 °F -8.0 °F -0.9 °F 84% 30.42 in 10.0 mi South 5.8 mph - N/A   Clear
8:52 AM 10.9 °F 1.4 °F 6.1 °F 81% 30.40 in 10.0 mi South 5.8 mph - N/A   Clear
9:52 AM 19.0 °F 6.8 °F 10.0 °F 68% 30.38 in 10.0 mi South 11.5 mph - N/A   Clear
10:52 AM 25.0 °F 11.7 °F 10.9 °F 55% 30.35 in 10.0 mi South 17.3 mph - N/A   Clear
11:52 AM 28.9 °F 16.9 °F 8.1 °F 41% 30.32 in 10.0 mi South 17.3 mph 24.2 mph N/A   Clear
1:52 PM 34.0 °F 21.8 °F 12.0 °F 40% 30.24 in 10.0 mi South 23.0 mph 29.9 mph N/A   Clear
2:52 PM 35.1 °F 23.0 °F 12.9 °F 40% 30.20 in 10.0 mi South 24.2 mph 31.1 mph N/A   Clear
3:52 PM 35.1 °F 24.1 °F 14.0 °F 42% 30.19 in 10.0 mi South 19.6 mph 26.5 mph N/A   Clear
4:52 PM 33.1 °F 23.0 °F 15.1 °F 48% 30.16 in 10.0 mi South 15.0 mph - N/A   Clear
5:52 PM 30.9 °F 20.7 °F 16.0 °F 54% 30.14 in 10.0 mi SSE 13.8 mph - N/A   Clear
6:52 PM 30.0 °F 19.5 °F 19.9 °F 66% 30.13 in 10.0 mi SSE 13.8 mph 21.9 mph N/A   Clear
7:52 PM 28.9 °F 17.3 °F 21.0 °F 72% 30.13 in 10.0 mi South 16.1 mph - N/A   Partly Cloudy
8:35 PM 30.2 °F 18.5 °F 23.0 °F 75% 30.06 in 10.0 mi South 17.3 mph 27.6 mph N/A   Mostly Cloudy
8:42 PM 30.2 °F 17.1 °F 23.0 °F 75% 30.06 in 10.0 mi South 21.9 mph 28.8 mph N/A   Mostly Cloudy
8:52 PM 30.0 °F 16.3 °F 23.0 °F 75% 30.13 in 10.0 mi SSW 24.2 mph 32.2 mph N/A   Overcast
9:29 PM 30.2 °F 18.1 °F 24.8 °F 80% 30.06 in 9.0 mi SSW 18.4 mph - N/A   Overcast
9:47 PM 30.2 °F 18.5 °F 24.8 °F 80% 30.06 in 8.0 mi South 17.3 mph 26.5 mph N/A   Overcast
9:52 PM 30.0 °F 19.1 °F 24.1 °F 79% 30.12 in 8.0 mi SSW 15.0 mph 25.3 mph N/A   Overcast
10:08 PM 30.2 °F 17.8 °F 24.8 °F 80% 30.06 in 8.0 mi SSW 19.6 mph - N/A   Overcast
10:52 PM 30.9 °F 19.8 °F 24.1 °F 76% 30.11 in 7.0 mi SSW 16.1 mph 21.9 mph N/A   Overcast
11:52 PM 30.9 °F 19.8 °F 25.0 °F 79% 30.10 in 6.0 mi SSW 16.1 mph - N/A   Haze